MET995 - Kuala Lumpur International Airport to Hong Kong

Airbus A330-243
787MT
3 hrs 30 mins
1375 nm
Scheduled - M | TU | TH

Bid/PiRep Status

Bid was submitted on Jan 02 2017.

PiRep # 74582: Approved by Dave Nichols on January 3rd, 2017 5:15 UTC

Departure

Departing from
Kuala Lumpur International Airport (KUL)
Departure gate
Ramp
Scheduled Departure
GMT 1145
Local 1945
METAR WMKK 281930Z VRB01KT 7000 FEW017CB SCT140 BKN280 24/24 Q1010 NOSIG
TAF TAF WMKK 281700Z 2818/3000 33005KT 9999 FEW017CB SCT140 BKN280 TEMPO 2902/2905 5000 -TSRA FEW015CB SCT020 TEMPO 2906/2910 3000 TSRA FEW008 FEW015CB SCT018
  • No charts available

Arrival

Arriving at
Hong Kong (HKG)
Arrival gate
Ramp
Scheduled Arrival
GMT 1515
Local 2315
METAR VHHH 281930Z 15003KT 9999 FEW040 21/16 Q1013 NOSIG
TAF TAF VHHH 281700Z 2818/2924 12010KT 8000 FEW030 TX27/2906Z TN20/2823Z TN22/2923Z TEMPO 2818/2824 VRB05KT BECMG 2903/2905 29010KT BECMG 2909/2911 12010KT

Route Map

Planning Resources

PIBOS.A M763 ENREP L642 EPDOS ACORN DUMOL1A
VKL G334 VPT RAXIM M771 CH
ISTANA ISTAN G584 PK L629 DOLOX M771 DUMOL DUMOL1B
VKR R208 IGARI M765 DAGAG M771 DULOP CARSO V551 BETTY BETY2A
Route:
OFP Layout:
Units:
Detailed Navlog:
ETOPS Planning:
Plan Stepclimbs:
Runway Analysis:
Include NOTAMS:
FIR NOTAMS:
Flight Maps:

Return Flights

MET994
Airbus A330-243
0715 GMT

Popularity

Hub Current Bids PiReps this month Total PiReps
KMCI 0 1 3
KLAX 0 0 2
KBOS 0 0 0